Time,TemperatureF,DewpointF,PressureIn,WindDirection,WindDirectionDegrees,WindSpeedMPH,WindSpeedGustMPH,Humidity,HourlyPrecipIn,Conditions,Clouds,dailyrainin,SoftwareType,DateUTC
2013-09-22 00:03:00,-999.0,-99.9,29.69,SSW,196,5.0,10.0,-999,-99.99,,,-99.99,,2013-09-22 04:03:00,
2013-09-22 00:15:00,-999.0,-99.9,29.68,SSW,199,8.0,17.0,-999,-99.99,,,-99.99,,2013-09-22 04:15:00,
2013-09-22 00:24:00,-999.0,-99.9,29.68,SSW,199,8.0,17.0,-999,-99.99,,,-99.99,,2013-09-22 04:24:00,
2013-09-22 00:54:00,-999.0,-99.9,29.68,South,187,6.0,14.0,-999,-99.99,,,-99.99,,2013-09-22 04:54:00,
2013-09-22 01:03:00,-999.0,-99.9,29.68,SW,218,6.0,14.0,-999,-99.99,,,-99.99,,2013-09-22 05:03:00,
2013-09-22 01:13:00,-999.0,-99.9,29.68,SSW,208,5.0,10.0,-999,-99.99,,,-99.99,,2013-09-22 05:13:00,
2013-09-22 01:35:00,-999.0,-99.9,29.69,WSW,241,3.0,5.0,-999,-99.99,,,-99.99,,2013-09-22 05:35:00,
2013-09-22 01:53:00,-999.0,-99.9,29.68,NNW,337,9.0,11.0,-999,-99.99,,,-99.99,,2013-09-22 05:53:00,
2013-09-22 02:12:00,-999.0,-99.9,29.69,WNW,287,6.0,7.0,-999,-99.99,,,-99.99,,2013-09-22 06:12:00,
2013-09-22 02:42:00,-999.0,-99.9,29.69,West,274,0.0,1.0,-999,-99.99,,,-99.99,,2013-09-22 06:42:00,
2013-09-22 02:52:00,-999.0,-99.9,29.68,NNW,335,2.0,4.0,-999,-99.99,,,-99.99,,2013-09-22 06:52:00,
2013-09-22 03:12:00,-999.0,-99.9,29.68,NNW,328,9.0,11.0,-999,-99.99,,,-99.99,,2013-09-22 07:12:00,
2013-09-22 03:22:00,-999.0,-99.9,29.68,NNW,346,8.0,11.0,-999,-99.99,,,-99.99,,2013-09-22 07:22:00,
2013-09-22 03:32:00,-999.0,-99.9,29.67,North,359,5.0,8.0,-999,-99.99,,,-99.99,,2013-09-22 07:32:00,
2013-09-22 03:42:00,-999.0,-99.9,29.67,NE,42,3.0,4.0,-999,-99.99,,,-99.99,,2013-09-22 07:42:00,
2013-09-22 03:52:00,-999.0,-99.9,29.67,NNE,15,4.0,5.0,-999,-99.99,,,-99.99,,2013-09-22 07:52:00,
2013-09-22 04:04:00,-999.0,-99.9,29.67,North,351,5.0,6.0,-999,-99.99,,,-99.99,,2013-09-22 08:04:00,
2013-09-22 04:22:00,-999.0,-99.9,29.68,WNW,283,3.0,4.0,-999,-99.99,,,-99.99,,2013-09-22 08:22:00,
2013-09-22 04:52:00,-999.0,-99.9,29.70,WSW,245,3.0,6.0,-999,-99.99,,,-99.99,,2013-09-22 08:52:00,
2013-09-22 05:11:00,-999.0,-99.9,29.71,West,269,3.0,5.0,-999,-99.99,,,-99.99,,2013-09-22 09:11:00,
2013-09-22 05:33:00,-999.0,-99.9,29.71,West,269,4.0,6.0,-999,-99.99,,,-99.99,,2013-09-22 09:33:00,
2013-09-22 05:43:00,-999.0,-99.9,29.70,NW,315,5.0,9.0,-999,-99.99,,,-99.99,,2013-09-22 09:43:00,
2013-09-22 05:54:00,-999.0,-99.9,29.70,NW,309,4.0,8.0,-999,-99.99,,,-99.99,,2013-09-22 09:54:00,
2013-09-22 06:04:00,-999.0,-99.9,29.70,NW,307,5.0,7.0,-999,-99.99,,,-99.99,,2013-09-22 10:04:00,
2013-09-22 06:23:00,-999.0,-99.9,29.72,West,259,2.0,6.0,-999,-99.99,,,-99.99,,2013-09-22 10:23:00,
2013-09-22 06:44:00,-999.0,-99.9,29.72,West,265,5.0,6.0,-999,-99.99,,,-99.99,,2013-09-22 10:44:00,
2013-09-22 07:12:00,-999.0,-99.9,29.73,West,269,4.0,5.0,-999,-99.99,,,-99.99,,2013-09-22 11:12:00,
2013-09-22 07:52:00,-999.0,-99.9,29.75,NW,311,7.0,12.0,-999,-99.99,,,-99.99,,2013-09-22 11:52:00,
2013-09-22 08:02:00,-999.0,-99.9,29.75,NW,311,6.0,8.0,-999,-99.99,,,-99.99,,2013-09-22 12:02:00,
2013-09-22 08:12:00,-999.0,-99.9,29.75,NW,315,7.0,14.0,-999,-99.99,,,-99.99,,2013-09-22 12:12:00,
2013-09-22 08:22:00,-999.0,-99.9,29.76,NW,316,12.0,14.0,-999,-99.99,,,-99.99,,2013-09-22 12:22:00,
2013-09-22 08:32:00,-999.0,-99.9,29.76,NNW,327,14.0,16.0,-999,-99.99,,,-99.99,,2013-09-22 12:32:00,
2013-09-22 09:02:00,-999.0,-99.9,29.77,NW,326,13.0,17.0,-999,-99.99,,,-99.99,,2013-09-22 13:02:00,
2013-09-22 09:12:00,-999.0,-99.9,29.77,NW,315,8.0,15.0,-999,-99.99,,,-99.99,,2013-09-22 13:12:00,
2013-09-22 09:32:00,-999.0,-99.9,29.77,NNW,327,13.0,16.0,-999,-99.99,,,-99.99,,2013-09-22 13:32:00,
2013-09-22 09:52:00,63.0,-99.9,29.77,North,-999,-999.0,-999.0,-999,-99.99,,,-99.99,,2013-09-22 13:52:00,
2013-09-22 10:22:00,-999.0,-99.9,29.78,NW,317,11.0,16.0,-999,-99.99,,,-99.99,,2013-09-22 14:22:00,
2013-09-22 10:32:00,-999.0,-99.9,29.79,NW,315,11.0,17.0,-999,-99.99,,,-99.99,,2013-09-22 14:32:00,
2013-09-22 10:42:00,-999.0,-99.9,29.79,NW,324,13.0,17.0,-999,-99.99,,,-99.99,,2013-09-22 14:42:00,
2013-09-22 11:12:00,-999.0,-99.9,29.79,NW,324,13.0,24.0,-999,-99.99,,,-99.99,,2013-09-22 15:12:00,
2013-09-22 11:23:00,-999.0,-99.9,29.78,NW,312,14.0,20.0,-999,-99.99,,,-99.99,,2013-09-22 15:23:00,
2013-09-22 11:55:00,64.0,-99.9,29.78,North,-999,-999.0,-999.0,-999,-99.99,,,-99.99,,2013-09-22 15:55:00,
2013-09-22 12:04:00,-999.0,-99.9,29.78,NW,315,12.0,17.0,-999,-99.99,,,-99.99,,2013-09-22 16:04:00,
2013-09-22 13:23:00,-999.0,-99.9,29.78,NW,305,12.0,18.0,-999,-99.99,,,-99.99,,2013-09-22 17:23:00,
2013-09-22 14:03:00,-999.0,-99.9,29.78,NW,310,12.0,17.0,-999,-99.99,,,-99.99,,2013-09-22 18:03:00,
2013-09-22 14:22:00,-999.0,-99.9,29.78,NW,321,15.0,22.0,-999,-99.99,,,-99.99,,2013-09-22 18:22:00,
2013-09-22 14:32:00,-999.0,-99.9,29.78,NW,310,12.0,20.0,-999,-99.99,,,-99.99,,2013-09-22 18:32:00,
2013-09-22 14:42:00,-999.0,-99.9,29.78,NW,326,21.0,25.0,-999,-99.99,,,-99.99,,2013-09-22 18:42:00,
2013-09-22 14:52:00,-999.0,-99.9,29.78,NNW,335,17.0,24.0,-999,-99.99,,,-99.99,,2013-09-22 18:52:00,
2013-09-22 15:32:00,-999.0,-99.9,29.79,NW,323,16.0,26.0,-999,-99.99,,,-99.99,,2013-09-22 19:32:00,
2013-09-22 15:42:00,-999.0,-99.9,29.79,NW,315,15.0,21.0,-999,-99.99,,,-99.99,,2013-09-22 19:42:00,
2013-09-22 15:53:00,-999.0,-99.9,29.78,NNW,342,20.0,24.0,-999,-99.99,,,-99.99,,2013-09-22 19:53:00,
2013-09-22 16:12:00,-999.0,-99.9,29.79,NNW,344,19.0,23.0,-999,-99.99,,,-99.99,,2013-09-22 20:12:00,
2013-09-22 16:52:00,-999.0,-99.9,29.79,NNW,334,12.0,17.0,-999,-99.99,,,-99.99,,2013-09-22 20:52:00,
2013-09-22 17:23:00,-999.0,-99.9,29.80,NNW,341,18.0,24.0,-999,-99.99,,,-99.99,,2013-09-22 21:23:00,
2013-09-22 17:34:00,-999.0,-99.9,29.80,NNW,341,17.0,23.0,-999,-99.99,,,-99.99,,2013-09-22 21:34:00,
2013-09-22 17:45:00,-999.0,-99.9,29.80,NNW,335,20.0,26.0,-999,-99.99,,,-99.99,,2013-09-22 21:45:00,
2013-09-22 18:04:00,-999.0,-99.9,29.81,NNW,332,18.0,23.0,-999,-99.99,,,-99.99,,2013-09-22 22:04:00,
2013-09-22 18:24:00,-999.0,-99.9,29.81,NNW,345,20.0,25.0,-999,-99.99,,,-99.99,,2013-09-22 22:24:00,
2013-09-22 18:34:00,-999.0,-99.9,29.82,NNW,348,17.0,23.0,-999,-99.99,,,-99.99,,2013-09-22 22:34:00,
2013-09-22 18:43:00,-999.0,-99.9,29.82,NW,322,19.0,25.0,-999,-99.99,,,-99.99,,2013-09-22 22:43:00,
2013-09-22 19:22:00,-999.0,-99.9,29.84,NW,326,17.0,23.0,-999,-99.99,,,-99.99,,2013-09-22 23:22:00,
2013-09-22 19:52:00,-999.0,-99.9,29.85,NNW,328,17.0,23.0,-999,-99.99,,,-99.99,,2013-09-22 23:52:00,
2013-09-22 20:01:00,-999.0,-99.9,29.86,NW,315,17.0,24.0,-999,-99.99,,,-99.99,,2013-09-23 00:01:00,
2013-09-22 20:32:00,-999.0,-99.9,29.87,NW,322,14.0,20.0,-999,-99.99,,,-99.99,,2013-09-23 00:32:00,
2013-09-22 20:42:00,-999.0,-99.9,29.88,NW,320,11.0,16.0,-999,-99.99,,,-99.99,,2013-09-23 00:42:00,
2013-09-22 20:53:00,-999.0,-99.9,29.88,NW,320,12.0,18.0,-999,-99.99,,,-99.99,,2013-09-23 00:53:00,
2013-09-22 22:12:00,-999.0,-99.9,29.90,NW,324,15.0,22.0,-999,-99.99,,,-99.99,,2013-09-23 02:12:00,
2013-09-22 22:22:00,-999.0,-99.9,29.91,NW,324,17.0,20.0,-999,-99.99,,,-99.99,,2013-09-23 02:22:00,
2013-09-22 22:32:00,-999.0,-99.9,29.91,NNW,332,16.0,21.0,-999,-99.99,,,-99.99,,2013-09-23 02:32:00,
2013-09-22 22:42:00,-999.0,-99.9,29.91,NNW,328,15.0,19.0,-999,-99.99,,,-99.99,,2013-09-23 02:42:00,
2013-09-22 23:03:00,-999.0,-99.9,29.92,NNW,331,15.0,22.0,-999,-99.99,,,-99.99,,2013-09-23 03:03:00,
2013-09-22 23:12:00,-999.0,-99.9,29.92,NNW,338,17.0,19.0,-999,-99.99,,,-99.99,,2013-09-23 03:12:00,
2013-09-22 23:23:00,-999.0,-99.9,29.92,NNW,341,15.0,21.0,-999,-99.99,,,-99.99,,2013-09-23 03:23:00,
2013-09-22 23:54:00,-999.0,-99.9,29.92,North,350,16.0,20.0,-999,-99.99,,,-99.99,,2013-09-23 03:54:00,